Regional Weather Roundup
Issued by NWS

Home | Current Version | Previous Version | Graphics & Text | Print | Product List | Glossary On
Versions: 1 2 3 4 5 6 7 8 9 10 11 12 13 14 15 16 17 18 19 20 21 22 23 24 25 26 27 28 29 30 31 32 33 34 35 36 37 38 39 40 41 42 43 44 45 46 47 48 49 50
000
ASUS43 KIND 200759
RWRIN

WEATHER ROUNDUP FOR INDIANA
NATIONAL WEATHER SERVICE INDIANAPOLIS IN
300 AM EST MON FEB 20 2017

NOTE: "FAIR" INDICATES FEW OR NO CLOUDS BELOW 12,000 FEET WITH NO
SIGNIFICANT WEATHER AND/OR OBSTRUCTIONS TO VISIBILITY.

* - STATION DOES NOT REPORT WEATHER SUCH AS PRECIPITATION OR FOG.

+ - STATION NOT QUALITY CONTROLLED BY THE NATIONAL WEATHER SERVICE.
    USE DATA WITH CAUTION...ESPECIALLY DEWPOINT AND RELATIVE
    HUMIDITY OBSERVATIONS.

INZ001>003-010>013-019-020-200900-
NORTHWEST INDIANA

CITY           SKY/WX    TMP DP  RH WIND       PRES   REMARKS
GARY /AIRPORT/ CLOUDY    42  39  90 CALM      30.14S FOG
KNOX *+        MOCLDY    37  21  52 SE3       30.15S
MONTICELLO +   CLOUDY    40  39  95 CALM      30.14S FOG

$$

LMZ046-743>745-200900-
SOUTHERN LAKE MICHIGAN

STATION/POSITION TIME  TEMP    WIND        PRES    WAVE
                       AIR SEA DIR/SP/G            HT
                 (UTC) (F)     (DEG/KT/KT) (MB)    (FT)
BURNS HARBOR     0740   52     170/  7/ 11 1021.0S
MICHIGAN CITY    0730   50     120/  7/  8   N/A

$$

INZ004-005-014>016-021>024-200900-
NORTH CENTRAL INDIANA

CITY           SKY/WX    TMP DP  RH WIND       PRES   REMARKS
GOSHEN         PTCLDY    36  30  79 CALM      30.16R
PERU/GRISSOM   CLOUDY    41  41 100 SE5       30.14F FOG
SOUTH BEND     CLOUDY    36  27  69 E5        30.16S
WARSAW +       CLOUDY    34  32  93 CALM      30.16S

$$

INZ006>009-017-018-025>027-200900-
NORTHEAST INDIANA

CITY           SKY/WX    TMP DP  RH WIND       PRES   REMARKS
ANGOLA *+      CLEAR     36  34  93 CALM      30.17R
FORT WAYNE     CLOUDY    36  31  82 S3        30.17R
KENDALLVILLE + PTCLDY    39  33  79 CALM      30.17R

$$

INZ028-029-035-036-043>045-051>053-200900-
WEST CENTRAL INDIANA

CITY           SKY/WX    TMP DP  RH WIND       PRES   REMARKS
LAFAYETTE      PTCLDY    41  40  96 E5        30.15R FOG
TERRE HAUTE    FOG       45  43  93 SE5       30.15S VSB 1/4

$$

INZ030>032-037>040-046>048-054>057-064-065-200900-
CENTRAL INDIANA

CITY           SKY/WX    TMP DP  RH WIND       PRES   REMARKS
CP ATTERBURY + CLOUDY    36  36 100 CALM      30.17S VSB<1/4
FRANKFORT +    CLOUDY    40  39  95 SE3       30.17R FOG
GREENWOOD *+     N/A     44  44 100 SE3       30.16F VSB 1/2
INDIANAPOLIS   CLOUDY    45  44  97 SE5       30.16R FOG
-EAGLE CREEK   FOG       41  38  89 CALM      30.16R VSB 3/4
KOKOMO +       CLOUDY    40  40 100 SE5       30.16F FOG
MT COMFORT *+  CLOUDY    36  36 100 S3        30.16S VSB 1/4
SHELBYVILLE    FOG       37  36  96 SE3       30.16R VSB 1/4

$$

INZ033-034-041-042-049-050-058-059-200900-
EAST CENTRAL INDIANA

CITY           SKY/WX    TMP DP  RH WIND       PRES   REMARKS
MUNCIE         FOG       40  39  97 SE3       30.17S VSB 1/4

$$

INZ060-061-067>069-081>083-085>088-200900-
SOUTHWEST INDIANA

CITY           SKY/WX    TMP DP  RH WIND       PRES   REMARKS
EVANSVILLE     FOG       43  41  93 NE6       30.14F VSB 1/4
HUNTINGBURG *+ CLOUDY    45  45 100 E5        30.16R VSB<1/4

$$

INZ062-063-066-070>080-084-089>092-200900-
SOUTH CENTRAL AND SOUTHEAST INDIANA

CITY           SKY/WX    TMP DP  RH WIND       PRES   REMARKS
BLOOMINGTON    FOG       38  37  97 CALM      30.16R VSB<1/4
MADISON *+       N/A     36  34  93 CALM      30.19S VSB 1/4
SEYMOUR +      FOG       37  37 100 CALM      30.16F VSB 1/4

$$





USA.gov is the U.S. government's official web portal to all federal, state and local government web resources and services.